Wetbulb
77.00 74.37 74.31 75.09 74.89 73.43 72.78 73.71 77.62 77.37 76.84 76.96 77.69 77.74 77.79 75.97 75.33 78.04 76.62 77.54 78.35 75.79
76.31 75.67 74.73 76.31 76.17 73.10 76.58 74.71 76.23 73.96 76.65 76.60 78.07 77.00 78.17 76.10 76.81 77.05 77.40 76.93 77.30 76.12
74.71 75.06 76.29 76.45 75.00 76.16 76.34 77.25 77.08 76.51 76.58 76.76 77.06 77.07 77.65 76.42 78.30 77.61 76.03 75.48 77.93 78.49
74.73 74.75 75.38 75.27 75.71 76.38 76.45 76.14 76.46 76.88 76.80 76.92 77.43 77.49 78.27 77.75 77.09 72.71 77.00 76.61 76.41 76.54
74.83 75.47 74.26 74.74 75.30 77.40 78.17 76.86 76.95 76.60 76.45 76.17 76.39 76.85 76.15 75.42 75.12 75.66 75.24 75.22 77.52 75.79
74.53 73.57 74.41 75.37 75.58 77.24 77.93 77.39 75.75 77.09 77.58 77.05 76.09 76.70 76.76 76.75 76.20 75.50 75.57 76.01 76.27 75.63
75.12 74.72 73.67 75.68 76.95 76.18 78.26 77.47 77.35 76.79 77.41 77.32 76.41 76.61 76.17 76.64 76.75 77.26 76.24 76.47 76.67 74.26
76.61 76.26 76.09 75.29 77.51 77.41 77.74 77.53 77.46 77.21 77.29 76.37 75.46 74.88 77.11 76.77 76.31 76.15 75.72 75.88 76.64 74.62
75.76 76.64 76.14 76.96 77.04 78.07 77.90 77.79 77.82 76.79 77.04 76.28 75.01 69.59 68.14 72.80 75.47 76.45 76.89 75.24 76.15 78.04
75.42 75.61 76.02 76.33 76.23 76.53 76.80 77.02 77.06 77.01 77.05 77.00 77.39 67.61 66.09 67.90 73.95 74.62 76.81 76.09 76.70 75.12
73.13 74.11 74.68 74.54 74.47 75.85 76.48 75.65 77.36 76.81 77.14 77.19 76.34 65.27 64.38 67.50 75.28 75.09 76.23 76.75 77.02 77.18
70.42 72.15 72.21 72.26 73.10 75.16 75.10 75.04 75.57 75.94 75.65 75.71 76.21 64.10 64.66 67.84 75.98 74.45 76.04 76.75 77.48 76.67
69.13 70.46 71.03 71.87 72.63 73.12 73.60 72.06 70.17 69.75 71.93 66.85 72.00 59.37 61.52 64.80 73.91 73.27 72.99 77.12 77.19 62.85
68.38 69.41 69.15 70.35 71.30 71.15 70.47 68.57 69.03 68.95 68.06 68.22 63.48 64.54 56.77 57.13 69.24 71.45 72.38 73.22 75.78 73.18
MSLP
1015.06 1015.27 1015.58 1015.76 1015.46 1015.34 1014.97 1015.00 1015.79 1016.52 1016.71 1017.04 1017.25 1017.40 1017.62 1017.98 1017.96 1017.68 1017.61 1017.79 1017.67 1017.02
1014.63 1014.98 1014.85 1015.17 1015.49 1015.67 1015.35 1015.03 1015.50 1016.23 1016.41 1016.49 1016.83 1017.01 1017.22 1017.55 1017.43 1017.62 1017.73 1017.48 1017.66 1017.61
1014.11 1014.54 1014.60 1014.81 1015.14 1015.25 1015.31 1015.20 1015.65 1015.96 1016.20 1016.53 1016.75 1016.65 1017.22 1017.28 1016.95 1017.24 1017.38 1016.98 1017.03 1017.08
1013.30 1013.82 1014.35 1014.40 1014.66 1015.11 1015.26 1015.69 1015.43 1016.12 1016.20 1016.52 1016.43 1016.83 1017.10 1017.23 1017.11 1017.69 1017.15 1017.22 1017.12 1017.11
1012.62 1013.01 1013.39 1014.08 1014.30 1014.71 1015.04 1015.21 1015.61 1015.93 1016.27 1016.39 1016.33 1016.59 1017.00 1017.09 1016.60 1016.58 1016.78 1016.98 1016.98 1016.87
1011.82 1012.55 1012.55 1012.93 1013.63 1014.04 1014.51 1014.83 1015.04 1015.38 1015.62 1015.77 1016.05 1016.12 1016.57 1016.56 1016.46 1016.48 1016.48 1016.46 1016.55 1017.02
1010.87 1011.69 1012.37 1012.36 1012.78 1013.30 1013.82 1014.23 1014.51 1014.73 1014.99 1015.18 1015.53 1015.63 1015.84 1015.87 1015.90 1015.89 1016.02 1016.19 1016.31 1016.63
1009.69 1010.82 1011.59 1012.11 1012.36 1012.71 1013.10 1013.49 1013.90 1014.14 1014.44 1014.85 1014.98 1014.98 1015.16 1015.37 1015.45 1015.58 1015.70 1015.87 1015.96 1016.06
1010.87 1011.36 1011.57 1012.04 1012.51 1012.66 1012.88 1013.11 1013.47 1013.58 1013.68 1014.15 1014.41 1014.18 1014.49 1014.84 1014.79 1015.07 1015.45 1015.45 1015.49 1015.36
1010.88 1011.11 1011.56 1012.04 1012.36 1012.70 1012.89 1013.16 1013.17 1013.08 1013.19 1013.35 1013.73 1013.84 1014.20 1014.48 1014.60 1014.57 1014.73 1015.04 1015.16 1015.08
1011.03 1011.22 1011.41 1011.75 1012.22 1012.47 1012.79 1012.92 1012.99 1013.16 1013.15 1013.26 1013.43 1013.77 1014.07 1014.28 1014.42 1014.30 1014.32 1014.34 1014.37 1014.48
1011.65 1011.44 1011.68 1012.04 1012.19 1012.37 1012.77 1013.03 1013.12 1013.14 1013.40 1013.51 1013.77 1014.32 1014.54 1014.48 1014.10 1013.82 1013.79 1013.79 1013.98 1014.13
1012.06 1012.02 1011.93 1012.19 1012.43 1012.80 1013.00 1013.34 1013.68 1013.98 1013.94 1014.20 1014.22 1014.86 1014.94 1014.83 1014.09 1013.54 1013.19 1013.38 1013.86 1014.53
1011.80 1012.92 1012.57 1012.55 1012.84 1013.13 1013.45 1013.65 1013.76 1014.11 1014.44 1014.72 1015.16 1015.32 1015.54 1015.38 1014.91 1014.19 1013.86 1013.54 1013.81 1014.61
Wind_Speed
13 10 9 10 7 9 7 6 12 8 5 8 7 6 5 6 6 7 6 7 6 9
13 13 12 9 10 6 10 2 8 5 8 6 5 6 6 7 6 6 7 6 6 6
14 13 13 8 7 8 3 7 1 5 7 8 6 4 5 9 9 7 6 8 5 5
14 15 14 12 10 10 10 10 5 5 5 5 7 9 9 8 9 1 8 8 8 7
11 14 16 14 14 11 12 10 10 8 9 10 10 8 6 10 9 8 9 8 10 9
13 10 14 15 14 13 12 11 12 11 10 10 9 9 10 10 10 10 10 10 10 7
15 13 11 12 12 13 12 12 12 11 11 10 11 10 11 11 10 11 7 9 9 8
12 10 9 6 9 12 11 12 12 12 12 11 11 10 11 10 10 9 9 10 8 10
9 8 9 8 10 9 10 12 11 13 13 14 11 12 10 9 9 10 9 10 10 10
10 10 10 8 9 10 11 11 12 14 13 13 14 7 9 11 12 11 9 11 10 11
3 5 6 6 7 8 8 10 10 12 12 11 10 2 8 10 11 11 12 11 11 11
2 4 4 4 5 4 6 7 9 9 10 11 9 5 3 4 10 13 12 12 11 10
6 2 4 3 5 1 1 0 2 4 2 3 3 10 8 6 7 11 9 7 8 6
1 5 1 0 1 3 0 1 2 2 5 6 8 6 8 7 4 6 8 6 3 1
Wind_Direction
203 212 216 186 258 235 245 200 128 166 214 199 247 204 220 246 238 232 221 244 280 305
204 222 210 217 215 240 263 215 147 64 189 230 213 232 263 235 242 244 228 249 231 260
203 205 225 204 178 245 339 287 299 207 205 218 228 234 225 262 228 226 261 247 234 246
202 202 210 215 214 222 249 210 211 263 280 285 239 207 221 255 284 25 236 259 286 285
195 209 199 213 215 213 217 227 241 215 224 233 247 240 244 238 271 247 245 241 257 266
187 203 224 200 213 207 212 218 232 209 222 229 230 216 216 229 235 248 266 259 261 289
199 190 211 222 207 209 209 214 221 221 226 219 227 225 228 230 228 234 242 259 250 259
209 197 186 203 220 216 219 212 219 216 214 227 235 237 220 242 248 253 234 250 243 241
220 233 226 234 246 232 230 228 218 224 219 208 231 229 206 229 240 228 240 250 255 260
190 196 209 216 229 238 235 244 230 227 226 218 217 209 195 211 236 250 235 239 238 245
132 186 202 220 235 240 237 237 241 243 238 236 235 280 194 187 232 250 257 261 259 255
157 214 195 219 239 270 270 268 255 256 257 252 252 46 49 242 245 248 241 247 256 268
341 276 243 245 214 185 245 262 21 352 347 68 136 47 17 342 268 256 254 265 267 67
28 271 44 313 229 167 343 346 7 348 31 24 21 61 22 8 293 288 297 271 294 148